Simultaneous Nadir Overpasses (SNOs) Predictions

Prediction of SNOs between LANDSAT-8 and METOP-B Satellite Orbit:

Table of predicted SNOs for the next 14.0 days since TLE Epoch: 12/23/2023
Index Date (LANDSAT-8) Time (LANDSAT-8) Lat,Lon (LANDSAT-8) SZA (LANDSAT-8 ) Date (METOP-B) Time (METOP-B) Lat,Lon (METOP-B) SZA (METOP-B ) Distance(km) Time Diff (sec)
1 12/24/2023 07:50:05 -81.25, -75.58 73.23 12/24/2023 07:49:00 -81.26, -75.63 73.25 0.91 65
2 12/24/2023 08:39:30 81.28, 92.52 106.84 12/24/2023 08:39:39 81.28, 92.50 106.84 0.44 9
3 12/27/2023 03:24:18 -81.26, -9.06 73.33 12/27/2023 03:23:29 -81.27, -8.88 73.32 3.28 49
4 12/27/2023 04:13:43 81.28, 159.01 106.74 12/27/2023 04:14:09 81.28, 158.84 106.73 2.91 26
5 12/29/2023 22:58:31 -81.27, 57.56 73.48 12/29/2023 22:58:00 -81.27, 57.39 73.51 3.04 31
6 12/29/2023 23:47:56 81.29,-134.39 106.58 12/29/2023 23:48:39 81.28,-134.54 106.58 2.58 43
7 01/01/2024 18:32:44 -81.26, 123.93 73.72 01/01/2024 18:32:30 -81.27, 123.93 73.72 0.68 14
8 01/01/2024 19:22:09 81.29, -68.06 106.33 01/01/2024 19:23:09 81.29, -68.01 106.36 0.76 60
9 01/04/2024 13:17:28 81.26, 22.74 105.99 01/04/2024 13:16:19 81.26, 22.67 105.96 1.17 69



Historial Predications of SNOs between LANDSAT-8 and METOP-B
